Location: Fours
(44.3167°N, 6.7000°E)
Time: 01:46:41
(UTC+00:00)

Cosmos 1821 Rocket - Pass Details

Date: 16 October 2021
Orbit: 944 x 1005 km, 82.9° (Epoch: 02 December)

Event Time Altitude Azimuth Distance (km) Brightness Sun altitude
Rises 17:22:52 0° 168° (SSE) 3,716 7.0 -7.1°
Reaches altitude 10° 17:25:28 10° 162° (SSE) 2,772 6.3 -7.6°
Maximum altitude 17:31:33 48° 90° (E) 1,288 4.3 -8.7°
Drops below altitude 10° 17:37:38 10° 19° (NNE) 2,781 6.2 -9.8°
Sets 17:40:15 0° 14° (NNE) 3,730 6.9 -10.2°
